Weather in Opalikha

Russia / Nizhny Novgorod Oblast'     56°30′56″N   44°12′51″E
temp.,
°C
wind,
m/s
gust,
m/s
humid.,
%
clouds,
%
prec.,
mm/h
press.,
hPa
HPBL,
m
14 may, fri
fri1400:00+14s22950 0.0 101818
03:00+13wsw119618 0.0 101910
06:00+15ne009048 0.0 101987
09:00+19ese0168100 0.0 1019587
12:00+23ssw125584 0.0 10191228
15:00+23ssw125418 0.6 10181412
18:00+22sse2367100 0.1 1017380
21:00+18ese2281100 0.1 101727
15 may, sat
sat1500:00+17ese3787100 0.0 1016135
03:00+16se3991100 0.4 1016190
06:00+17se3790100 0.6 1015221
09:00+22sse3567100 0.6 1014479
12:00+26sse6852100 0.0 10131007
15:00+26s61052100 0.0 10121260
18:00+23s6105943 0.0 10121002
21:00+18s3118298 0.9 1013299
16 may, sun
sun1600:00+16s37917 0.1 1013150
03:00+15ssw25955 0.1 101391
06:00+17ssw2688100 0.0 1014202
09:00+21sw466692 0.0 1014700
12:00+24sw5849100 0.0 10141680
15:00+24sw594698 0.0 10132025
18:00+20s48701 0.1 1013321
21:00+16ssw38870 0.1 1014150
17 may, mon
mon1700:00+15sw22865 0.0 101535
03:00+13ssw2287100 0.0 101612
06:00+16s248160 0.0 1016132
09:00+21sw236258 0.0 1017549
12:00+25ssw234634 0.0 10161444
15:00+26ssw234655 0.0 10151613
18:00+25se136080 0.0 1015133
21:00+19se228151 0.0 101520
18 may, tue
tue1800:00+16se228567 0.0 101522
03:00+15se228219 0.0 101517
06:00+18se247338 0.0 1015118
09:00+24sse354753 0.0 1014481
12:00+28sse46365 0.0 10141074
15:00+28sse56305 0.0 10132255
18:00+25se37511 0.0 1013350
21:00+19se367859 0.0 101395